Hourly Data Report for September 20, 2017

All times are specified in Local Standard Time (LST). Add 1 hour to adjust for Daylight Saving Time where and when it is observed.

POND INLET A
NUNAVUT

72°41'22.000" N
77°58'08.000" W
61.60 m
2403206
71095
YIO

Download Data

Hourly Data (September 2017)
Hourly Data Report for September 20, 2017
Temp Definition
°C
Dew Point Temp Definition
°C
Rel Hum Definition
%
Wind Dir Definition
10's deg

Wind Spd Definition
km/h
Visibility Definition
km
Stn Press Definition
kPa
Hmdx Definition


Wind Chill Definition


Weather Definition


TIME
00:00 Legend Double Dagger -6.1 -8.0 87   0 16.1 101.81     LegendNANA
01:00 Legend Double Dagger -6.2 -8.6 83 16 8 16.1 101.85   -10 LegendNANA
02:00 Legend Double Dagger -7.0 -9.4 83 13 5 16.1 101.87   -10 LegendNANA
03:00 Legend Double Dagger -7.3 -9.3 86 LegendMM 4 16.1 101.89   -9 LegendNANA
04:00 Legend Double Dagger -6.0 -8.3 84   0 16.1 101.93     LegendNANA
05:00 Legend Double Dagger -7.6 -9.6 86 18 5 16.1 101.95   -10 LegendNANA
06:00 Legend Double Dagger -7.5 -9.3 87 14 17 16.1 101.96   -14 LegendNANA
07:00 Legend Double Dagger -7.9 -10.2 84 12 9 16.1 101.98   -12 LegendNANA
08:00 Legend Double Dagger -6.5 -8.8 84 14 22 16.1 101.98   -14 LegendNANA
09:00 Legend Double Dagger -5.6 -8.9 78 14 21 16.1 101.99   -12 LegendNANA
10:00 Legend Double Dagger -5.5 -8.8 78 15 22 16.1 101.97   -13 LegendNANA
11:00 Legend Double Dagger -2.8 -6.3 77 17 18 16.1 101.97   -8 LegendNANA
12:00 Legend Double Dagger -2.2 -5.4 79 16 15 16.1 101.97   -7 LegendNANA
13:00 Legend Double Dagger -2.2 -5.0 81 19 18 16.1 101.97   -8 LegendNANA
14:00 Legend Double Dagger -2.4 -4.9 83 19 21 16.1 101.97   -8 LegendNANA
15:00 Legend Double Dagger -2.5 -4.8 84 20 18 16.1 102.00   -8 LegendNANA
16:00 Legend Double Dagger -2.0 -4.7 82 20 21 16.1 102.01   -8 LegendNANA
17:00 Legend Double Dagger -2.9 -5.2 84 20 11 16.1 102.02   -7 LegendNANA
18:00 Legend Double Dagger -3.2 -5.4 85 20 9 16.1 102.01   -7 LegendNANA
19:00 Legend Double Dagger -3.5 -5.5 86 20 9 16.1 102.00   -7 LegendNANA
20:00 Legend Double Dagger -3.7 -5.9 85 18 9 16.1 102.00   -7 LegendNANA
21:00 Legend Double Dagger -4.0 -6.5 83 17 11 16.1 102.01   -8 LegendNANA
22:00 Legend Double Dagger -5.3 -7.4 85 15 15 16.1 102.00   -11 LegendNANA
23:00 Legend Double Dagger -5.6 -7.3 88 15 21 16.1 101.99   -12 LegendNANA

Notes on Data Quality.

Legend

  • E = Estimated
  • M = Missing
  • NA = Not Available
  • ‡ = Partner data that is not subject to review by the National Climate Archives
Date modified: